This is the latest recevied weather packets stored in our database for station/object IR3AS. If no packets are shown the sender has not sent any weather packets the latest 10 day(s).
| Time | Temp. | Humidity | Pressure | Rain* | Wind** | Luminosity | Snow |
|---|---|---|---|---|---|---|---|
| 1787888732 | 15.56° C | 73% | 867.3 hPa | 0 mm | - | - | - |
| 1787888698 | 15.56° C | 73% | 867.3 hPa | 0 mm | - | - | - |
| 1787888398 | 15.56° C | 69% | 867 hPa | 0 mm | - | - | - |
| 1787888099 | 15.56° C | 68% | 866.6 hPa | 0 mm | - | - | - |
| 1787887798 | 15.56° C | 68% | 866.3 hPa | 0 mm | - | - | - |
| 1787887498 | 15.56° C | 68% | 866.2 hPa | 0 mm | - | - | - |
| 1787887200 | 15.56° C | 68% | 866.1 hPa | 0 mm | - | - | - |
| 1787886899 | 15.56° C | 68% | 866.3 hPa | 0 mm | - | - | - |
| 1787886599 | 15.56° C | 68% | 866.1 hPa | 0 mm | - | - | - |
| 1787886376 | 15.56° C | 69% | 866 hPa | 0 mm | - | - | - |
| 1787886299 | 15.56° C | 69% | 866 hPa | 0 mm | - | - | - |
| 1787885999 | 15.56° C | 69% | 866.5 hPa | 0 mm | - | - | - |
| 1787885700 | 15.56° C | 69% | 866.1 hPa | 0 mm | - | - | - |
| 1787885399 | 16.11° C | 69% | 866.3 hPa | 0 mm | - | - | - |
| 1787885099 | 16.11° C | 67% | 866.8 hPa | 0 mm | - | - | - |
| 1787884800 | 16.67° C | 63% | 866.6 hPa | 0 mm | - | - | - |
| 1787884499 | 16.67° C | 64% | 866.5 hPa | 0 mm | - | - | - |
| 1787884199 | 16.67° C | 62% | 866.4 hPa | 0 mm | - | - | - |
| 1787883899 | 16.67° C | 63% | 866.5 hPa | 0 mm | - | - | - |
| 1787883599 | 16.11° C | 63% | 867.1 hPa | 0 mm | - | - | - |
| 1787883299 | 16.11° C | 66% | 866.4 hPa | 0 mm | - | - | - |
| 1787882999 | 16.11° C | 67% | 866.6 hPa | 0 mm | - | - | - |
| 1787882752 | 16.11° C | 68% | 866.6 hPa | 0 mm | - | - | - |
| 1787882699 | 16.11° C | 68% | 866.6 hPa | 0 mm | - | - | - |
| 1787882399 | 15.56° C | 69% | 866.7 hPa | 0 mm | - | - | - |
* Rain latest hour (hover to see other rain measurements)
** Current wind speed in m/s (hover to see current wind gust speed)